This demonstration page uses our WeatherBlox Daily Observations layout. Learn more.

Left ArrowRight Arrow

39.51506, -84.39828

Hourly Observations for May 22, 2020

Temp ( °F °C ) Dew Point ( °F °C ) Humidity (%) Winds ( mph kmh ) Pressure ( in mb ) Visibility ( mi km ) Precip ( " mm )
12:15 am 00:15 Cloudy with Mist and Fog 59 15.2 59 15.2 100 100 Calm 30.08 1018 4 6.43736 0 0
12:35 am 00:35 Cloudy with Mist and Fog 59 15.2 59 15.2 100 100 Calm 30.08 1018 5 8.0467 0 0
12:55 am 00:55 Cloudy with Mist and Fog 59 15 59 15 100 100 Calm 30.07 1018 3.5 5.63269 0 0
1:15 am 01:15 Cloudy with Mist and Fog 59 15 59 15 100 100 NE 3 6 30.07 1018 3.5 5.63269 0 0
1:35 am 01:35 Mostly Cloudy with Mist and Fog 59 14.9 59 14.8 99 99 Calm 30.07 1018 5 8.0467 0 0
1:55 am 01:55 Cloudy with Mist and Fog 58 14.7 58 14.7 100 100 Calm 30.07 1018 4 6.43736 0 0
2:15 am 02:15 Cloudy with Mist and Fog 59 14.9 59 14.9 100 100 Calm 30.06 1018 5 8.0467 0 0
2:35 am 02:35 Cloudy with Mist and Fog 59 15 59 15 100 100 Calm 30.06 1018 5 8.0467 0 0
2:55 am 02:55 Cloudy with Mist and Fog 59 14.9 59 14.9 100 100 Calm 30.06 1018 5 8.0467 0 0
3:15 am 03:15 Cloudy 59 15.1 59 15 99 99 Calm 30.06 1018 7 11.26538 0 0
3:35 am 03:35 Cloudy with Mist and Fog 59 15.1 59 15.1 100 100 Calm 30.06 1018 7 11.26538 0 0
3:55 am 03:55 Cloudy with Mist and Fog 59 15.1 59 15.1 100 100 Calm 30.06 1018 5 8.0467 0 0
4:15 am 04:15 Cloudy 59 15.2 59 15 99 99 Calm 30.06 1018 7 11.26538 0 0
4:35 am 04:35 Cloudy with Mist and Fog 59 15 59 14.9 99 99 Calm 30.06 1018 5 8.0467 0 0
4:55 am 04:55 Cloudy with Mist and Fog 59 15 59 15 100 100 Calm 30.06 1018 5 8.0467 0 0
5:15 am 05:15 Cloudy with Mist and Fog 59 14.9 59 14.9 100 100 Calm 30.06 1018 5 8.0467 0 0
5:35 am 05:35 Cloudy with Mist and Fog 59 14.9 59 14.9 100 100 E 3 6 30.06 1018 5 8.0467 0 0
5:55 am 05:55 Cloudy with Mist and Fog 58 14.7 58 14.7 100 100 E 3 6 30.06 1018 5 8.0467 0 0
6:15 am 06:15 Cloudy with Mist and Fog 58 14.5 58 14.5 100 100 Calm 30.06 1018 5 8.0467 0 0
6:35 am 06:35 Cloudy with Mist and Fog 58 14.6 58 14.6 100 100 Calm 30.05 1018 3.5 5.63269 0 0
6:55 am 06:55 Cloudy with Haze 59 15 N/A N/A Calm 30.06 1018 5 8.0467 0 0
7:15 am 07:15 Cloudy with Mist and Fog 59 15 59 15 100 100 Calm 30.06 1018 5 8.0467 0 0
7:35 am 07:35 Cloudy 59 15.1 59 15 99 99 Calm 30.06 1018 7 11.26538 0 0
7:55 am 07:55 Cloudy 59 15.1 59 15 99 99 Calm 30.06 1018 10 16.0934 0 0
8:15 am 08:15 Cloudy 59 15.2 59 15 99 99 Calm 30.07 1018 10 16.0934 0 0
8:35 am 08:35 Cloudy 60 15.5 59 15.1 97 97 Calm 30.06 1018 10 16.0934 0 0
8:55 am 08:55 Cloudy 61 16 59 15 94 94 Calm 30.05 1018 10 16.0934 0 0
9:15 am 09:15 Cloudy 61 16.1 59 15.2 94 94 Calm 30.06 1018 10 16.0934 0 0
9:35 am 09:35 Cloudy 61 16.2 59 15.2 94 94 Calm 30.06 1018 10 16.0934 0 0
9:55 am 09:55 Cloudy 62 16.5 59 15.2 92 92 Calm 30.07 1018 10 16.0934 0 0
10:15 am 10:15 Cloudy 62 16.8 60 15.3 91 91 Calm 30.06 1018 10 16.0934 0 0
10:35 am 10:35 Cloudy 63 17 60 15.4 90 90 Calm 30.06 1018 10 16.0934 0 0
10:55 am 10:55 Cloudy 64 17.8 60 15.7 88 88 Calm 30.06 1018 10 16.0934 0 0
11:15 am 11:15 Cloudy 65 18.1 60 15.3 84 84 Calm 30.05 1018 10 16.0934 0 0
11:35 am 11:35 Partly Cloudy 67 19.4 61 16 81 81 Calm 30.06 1018 10 16.0934 0 0
11:55 am 11:55 Cloudy 67 19.7 61 16.1 80 80 Calm 30.06 1018 10 16.0934 0 0
12:15 pm 12:15 Mostly Cloudy 67 19.6 60 15.7 78 78 Calm 30.05 1017 10 16.0934 0 0
12:35 pm 12:35 Mostly Cloudy 69 20.7 61 15.9 74 74 Calm 30.03 1017 10 16.0934 0 0
12:55 pm 12:55 Mostly Cloudy 71 21.4 61 16 71 71 ESE 5 7 30.03 1017 10 16.0934 0 0
1:15 pm 13:15 Partly Cloudy 70 21.2 60 15.3 69 69 W 5 7 30.02 1017 10 16.0934 0 0
1:35 pm 13:35 Sunny 71 21.6 60 15.3 68 68 Calm 30.02 1017 10 16.0934 0 0
1:55 pm 13:55 Mostly Cloudy 71 21.9 60 15.5 67 67 Calm 30.01 1016 10 16.0934 0 0
2:15 pm 14:15 Sunny 73 22.5 59 15.1 63 63 W 6 9 30 1016 10 16.0934 0 0
2:35 pm 14:35 Partly Cloudy 73 22.6 60 15.4 64 64 Calm 30.01 1016 10 16.0934 0 0
2:55 pm 14:55 Partly Cloudy 72 22.3 59 15 63 63 NNW 3 6 30 1016 10 16.0934 0 0
3:15 pm 15:15 Partly Cloudy 72 22.4 58 14.7 62 62 Calm 30 1016 10 16.0934 0 0
3:35 pm 15:35 Mostly Cloudy 73 22.6 59 14.8 62 62 WSW 3 6 29.99 1016 10 16.0934 0 0
3:55 pm 15:55 Mostly Cloudy 73 22.7 59 15 62 62 W 3 6 29.99 1016 10 16.0934 0 0
4:15 pm 16:15 Sunny 74 23.5 58 14.7 58 58 Calm 29.99 1015 10 16.0934 0 0
4:35 pm 16:35 Mostly Cloudy 73 22.7 57 14.1 58 58 Calm 29.98 1015 10 16.0934 0 0
4:55 pm 16:55 Mostly Cloudy 73 22.8 57 14.1 58 58 Calm 29.98 1015 10 16.0934 0 0
5:15 pm 17:15 Partly Cloudy 75 23.7 58 14.2 55 55 Calm 29.97 1015 10 16.0934 0 0
5:35 pm 17:35 Sunny 75 23.7 55 13 51 51 Calm 29.97 1015 10 16.0934 0 0
5:55 pm 17:55 Sunny 76 24.4 57 13.9 52 52 WNW 3 6 29.95 1014 10 16.0934 0 0
6:35 pm 18:35 Sunny 74 23.2 57 13.8 56 56 Calm 29.96 1014 10 16.0934 0 0
6:55 pm 18:55 Sunny 74 23.4 56 13.5 54 54 Calm 29.95 1014 10 16.0934 0 0
7:15 pm 19:15 Mostly Cloudy 74 23.1 57 14.1 57 57 WSW 6 9 29.95 1014 10 16.0934 0 0
7:35 pm 19:35 Sunny 74 23.3 57 13.8 55 55 WSW 5 7 29.95 1014 10 16.0934 0 0
7:55 pm 19:55 Sunny 73 22.7 59 15.1 62 62 Calm 29.95 1014 10 16.0934 0 0
8:15 pm 20:15 Sunny 72 22 60 15.3 66 66 Calm 29.95 1014 10 16.0934 0 0
8:35 pm 20:35 Sunny 68 20.1 60 15.4 74 74 Calm 29.95 1014 10 16.0934 0 0
8:55 pm 20:55 Mostly Cloudy 64 18 60 15.5 85 85 Calm 29.97 1015 10 16.0934 0 0
9:15 pm 21:15 Partly Cloudy 65 18.1 60 15.4 84 84 Calm 29.97 1015 10 16.0934 0 0
9:35 pm 21:35 Clear 64 17.6 60 15.6 88 88 Calm 29.97 1015 10 16.0934 0 0
9:55 pm 21:55 Clear 63 17 59 15.2 89 89 Calm 29.98 1015 10 16.0934 0 0
10:15 pm 22:15 Cloudy 61 16.2 59 15 93 93 Calm 30 1016 10 16.0934 0 0
10:35 pm 22:35 Cloudy 61 16.2 60 15.6 96 96 Calm 30.01 1016 10 16.0934 0 0
10:55 pm 22:55 Partly Cloudy 62 16.4 60 15.8 96 96 Calm 30.01 1016 10 16.0934 0 0
11:15 pm 23:15 Mostly Cloudy 61 16.3 60 15.5 95 95 Calm 30.01 1016 10 16.0934 0 0
11:35 pm 23:35 Clear 60 15.6 59 15 96 96 Calm 30.01 1016 10 16.0934 0 0
11:55 pm 23:55 Clear 59 15 59 14.8 99 99 Calm 30.01 1016 10 16.0934 0 0

Powered by AerisWeather